FW0371 Weather Reports


Display with metric or nautical units.
time (UTC)temp
F
wind
direction
speed
MPH
gust
MPH
rain 1hr
in
rain 24hr
in
rain mn
in
humidity
%
barometer
mb
20260506004503 76 65 4.0 9.0 0.00 0.00 0.00 24 1008.0
20260506003003 78 51 3.0 8.0 0.00 0.00 0.00 23 1007.8
20260506001503 80 69 5.0 9.0 0.00 0.00 0.00 23 1007.8
20260506000004 80 32 4.0 12.0 0.00 0.00 0.00 22 1007.7
20260505234503 80 306 4.0 9.0 0.00 0.00 0.00 23 1007.8
20260505233003 78 237 3.0 7.0 0.00 0.00 0.00 24 1007.8
20260505231503 79 160 5.0 9.0 0.00 0.00 0.00 23 1007.9
20260505230003 79 139 4.0 9.0 0.00 0.00 0.00 24 1008.0
20260505224503 77 154 3.0 7.0 0.00 0.00 0.00 25 1008.3
20260505223003 79 74 4.0 16.0 0.00 0.00 0.00 24 1008.5
20260505221503 80 57 6.0 13.0 0.00 0.00 0.00 24 1008.7
20260505220003 79 28 4.0 13.0 0.00 0.00 0.00 25 1008.8
20260505214503 81 34 4.0 9.0 0.00 0.00 0.00 24 1008.9
20260505213024 80 72 5.0 13.0 0.00 0.00 0.00 24 1009.1
20260505211503 79 98 5.0 11.0 0.00 0.00 0.00 24 1009.1
20260505210004 77 87 3.0 10.0 0.00 0.00 0.00 27 1009.2
20260505204503 76 169 3.0 9.0 0.00 0.00 0.00 27 1009.4
20260505203003 76 77 4.0 12.0 0.00 0.00 0.00 27 1009.5
20260505201503 75 88 3.0 7.0 0.00 0.00 0.00 28 1009.7
20260505200004 78 82 5.0 10.0 0.00 0.00 0.00 26 1009.7
20260505194503 78 72 4.0 13.0 0.00 0.00 0.00 27 1009.8
20260505193003 78 67 3.0 7.0 0.00 0.00 0.00 26 1009.9
20260505191503 76 89 4.0 10.0 0.00 0.00 0.00 27 1010.0
20260505190004 76 59 4.0 9.0 0.00 0.00 0.00 28 1010.2
20260505184503 74 23 3.0 11.0 0.00 0.00 0.00 30 1010.2
20260505183003 71 189 2.0 5.0 0.00 0.00 0.00 36 1010.3
20260505181524 69 214 3.0 6.0 0.00 0.00 0.00 39 1010.4
20260505180003 68 288 4.0 8.0 0.00 0.00 0.00 43 1010.4
20260505174504 66 222 5.0 9.0 0.00 0.00 0.00 47 1010.4
20260505173003 64 188 5.0 9.0 0.00 0.00 0.00 51 1010.4
20260505171503 63 199 5.0 9.0 0.00 0.00 0.00 54 1010.5
20260505170024 61 211 5.0 9.0 0.00 0.00 0.00 58 1010.4
20260505164503 60 210 5.0 9.0 0.00 0.00 0.00 60 1010.4
20260505163003 59 218 4.0 7.0 0.00 0.00 0.00 62 1010.5
20260505161503 58 198 4.0 8.0 0.00 0.00 0.00 64 1010.4
20260505153003 55 218 4.0 8.0 0.00 0.00 0.00 69 1010.3
20260505151524 54 235 3.0 7.0 0.00 0.00 0.00 71 1010.2
20260505124503 47 211 3.0 5.0 0.00 0.00 0.00 77 1008.8
20260505123024 48 235 2.0 4.0 0.00 0.00 0.00 79 1008.7
20260505121503 48 245 3.0 5.0 0.00 0.00 0.00 78 1008.7
20260505120003 48 244 2.0 7.0 0.00 0.00 0.00 78 1008.7
20260505114503 48 263 4.0 8.0 0.00 0.00 0.00 78 1008.7
20260505113024 48 260 4.0 8.0 0.00 0.00 0.00 77 1008.8
20260505111503 49 255 4.0 8.0 0.00 0.00 0.00 77 1008.8
20260505070003 54 221 5.0 10.0 0.00 0.00 0.00 67 1008.6
20260505064503 55 243 5.0 11.0 0.00 0.00 0.00 66 1008.5
20260505063003 55 285 8.0 14.0 0.00 0.00 0.00 66 1008.2
20260505061524 55 255 6.0 12.0 0.00 0.00 0.00 65 1008.0
20260505060003 56 249 4.0 9.0 0.00 0.00 0.00 64 1008.0
20260505054504 56 249 3.0 7.0 0.00 0.00 0.00 65 1008.0
20260505053003 57 234 4.0 7.0 0.00 0.00 0.00 64 1008.0
20260505051503 57 205 4.0 10.0 0.00 0.00 0.00 63 1008.0
20260505041503 58 187 10.0 17.0 0.00 0.00 0.00 63 1007.8
20260505040004 58 177 9.0 15.0 0.00 0.00 0.00 62 1007.4
20260505034503 59 178 8.0 16.0 0.00 0.00 0.00 61 1007.6
20260505033003 59 175 9.0 17.0 0.00 0.00 0.00 60 1007.1
20260505031503 60 177 9.0 19.0 0.00 0.00 0.00 59 1006.9
20260505030004 60 185 10.0 20.0 0.00 0.00 0.00 58 1006.3
20260505024524 61 175 13.0 25.0 0.00 0.00 0.00 55 1005.8
20260505023003 62 161 13.0 22.0 0.00 0.00 0.00 52 1005.3
20260505021524 62 160 15.0 23.0 0.00 0.00 0.00 53 1005.8
20260505020003 64 173 14.0 26.0 0.00 0.00 0.00 52 1005.8
20260505014503 67 162 10.0 18.0 0.00 0.00 0.00 39 1005.4
20260505013024 69 152 13.0 20.0 0.00 0.00 0.00 36 1004.9
20260505011503 73 129 9.0 22.0 0.00 0.00 0.00 31 1004.6
20260505010003 74 26 7.0 15.0 0.00 0.00 0.00 22 1004.0